Location: Koszewko
(53.2876°N, 14.9061°E)
Time: 23:34:30
(UTC+00:00)

SJ 16-02 - Pass Details

Date: 03 March 2021
Orbit: 605 x 617 km, 75.0° (Epoch: 12 April)

Event Time Altitude Azimuth Distance (km) Brightness Sun altitude
Rises 19:33:17 0° 333° (NNW) 2,885 5.6 -25.7°
Reaches altitude 10° 19:35:32 10° 330° (NNW) 1,978 4.6 -26.0°
Enters shadow 19:39:38 60° 271° (W) 705 1.7 -26.6°
